Weather History for Bremerton, WA

Change the Weather History Date:

Thursday, April 26, 2012

  Actual Average Record
Temperature  
Mean Temperature 38 °F -  
Max Temperature 55 °F 57 °F 78 °F (2004)
Min Temperature 21 °F 38 °F 21 °F (2012)
Degree Days  
Heating Degree Days 27    
Moisture  
Dew Point 32 °F    
Average Humidity 66    
Maximum Humidity 100    
Minimum Humidity 35    
Precipitation  
Precipitation 0.04 in - - ()
Sea Level Pressure  
Sea Level Pressure 29.76 in    
Wind  
Wind Speed 11 mph (SSW)    
Max Wind Speed 28 mph    
Max Gust Speed 33 mph    
Visibility 10 miles    
Events      
Averages and records for this station are not official NWS values.
T = Trace of Precipitation, MM = Missing Value Source: NWS Daily Summary

Daily Weather History Graph

Daily Weather History Graph

Search for Another Location

Airport:

Trip Planner

Search our weather history database for the weather conditions in past years. The results will help you decide how hot, cold, wet, or windy it might be!

Date:

Astronomy

Apr. 26, 2012 Rise Set
Actual Time 6:01 AM PDT 8:16 PM PDT
Civil Twilight 5:27 AM PDT 8:50 PM PDT
Nautical Twilight 4:46 AM PDT 9:32 PM PDT
Astronomical Twilight 3:58 AM PDT 10:20 PM PDT
Moon 9:37 AM PDT (4/26) 12:35 AM PDT (4/26)
Length of Visible Light 15h 22m
Length of Day
14h 15m
Waxing Crescent, 25% of the Moon is Illuminated
Apr 26
Waxing Crescent
Apr 29
First Quarter
May 5
Full
May 12
Last Quarter
May 20
New

Hourly Weather History & Observations

Time (PDT) Temp. Windchill Dew Point Humidity Pressure Visibility Wind Dir Wind Speed Gust Speed Precip Events Conditions
12:35 AM 24.8 °F 15.3 °F - N/A% 29.65 in 10.0 mi SSW 9.2 mph - 0.01 in   Overcast
12:55 AM 26.6 °F 18.2 °F - N/A% 29.66 in 10.0 mi SSW 8.1 mph - 0.01 in   Overcast
1:15 AM 26.6 °F 18.2 °F - N/A% 29.65 in 10.0 mi SSW 8.1 mph - 0.01 in   Mostly Cloudy
1:35 AM 24.8 °F 16.9 °F - N/A% 29.65 in 10.0 mi South 6.9 mph - 0.01 in   Partly Cloudy
1:55 AM 21.2 °F 13.6 °F - N/A% 29.64 in 10.0 mi SSW 5.8 mph - 0.01 in   Clear
2:15 AM 21.2 °F 10.9 °F - N/A% 29.65 in 10.0 mi South 9.2 mph - 0.01 in   Mostly Cloudy
2:35 AM 24.8 °F 16.9 °F - N/A% 29.64 in 10.0 mi South 6.9 mph - 0.02 in   Overcast
2:55 AM 26.6 °F 20.0 °F - N/A% 29.64 in 10.0 mi South 5.8 mph - 0.02 in   Overcast
3:15 AM 30.2 °F 23.4 °F - N/A% 29.65 in 10.0 mi South 6.9 mph - N/A   Overcast
3:35 AM 30.2 °F 23.4 °F - N/A% 29.65 in 10.0 mi South 6.9 mph - N/A   Overcast
3:55 AM 32.0 °F 26.4 °F - N/A% 29.64 in 10.0 mi South 5.8 mph - N/A   Overcast
4:15 AM 28.4 °F 22.2 °F - N/A% 29.64 in 10.0 mi South 5.8 mph - N/A   Overcast
4:35 AM 32.0 °F 25.6 °F - N/A% 29.64 in 10.0 mi South 6.9 mph - N/A   Overcast
4:55 AM 28.4 °F 20.4 °F - N/A% 29.64 in 10.0 mi South 8.1 mph - N/A   Overcast
5:15 AM 26.6 °F 17.5 °F - N/A% 29.63 in 10.0 mi SSW 9.2 mph - N/A   Overcast
5:35 AM 28.4 °F 21.2 °F - N/A% 29.63 in 10.0 mi South 6.9 mph - N/A   Overcast
5:55 AM 28.4 °F 22.2 °F - N/A% 29.63 in 10.0 mi South 5.8 mph - N/A   Overcast
6:15 AM 28.4 °F 21.2 °F - N/A% 29.63 in 10.0 mi South 6.9 mph - N/A   Overcast
6:35 AM 26.6 °F 19.1 °F - N/A% 29.63 in 10.0 mi South 6.9 mph - N/A   Overcast
6:55 AM 28.4 °F 22.2 °F - N/A% 29.63 in 10.0 mi South 5.8 mph - N/A   Overcast
7:15 AM 30.2 °F 24.3 °F 30.2 °F 100% 29.63 in 10.0 mi South 5.8 mph - N/A   Overcast
7:35 AM 33.8 °F 28.6 °F 33.8 °F 100% 29.64 in 10.0 mi SSW 5.8 mph - N/A   Overcast
7:55 AM 44.6 °F 41.4 °F 37.4 °F 76% 29.65 in 10.0 mi South 5.8 mph - N/A   Overcast
8:15 AM 44.6 °F 41.4 °F 37.4 °F 76% 29.65 in 9.0 mi South 5.8 mph - N/A   Overcast
8:35 AM 44.6 °F 40.7 °F 37.4 °F 76% 29.65 in 10.0 mi South 6.9 mph - N/A   Mostly Cloudy
8:55 AM 44.6 °F 40.2 °F 37.4 °F 76% 29.65 in 10.0 mi SW 8.1 mph - N/A   Mostly Cloudy
9:15 AM 46.4 °F 42.9 °F 37.4 °F 71% 29.65 in 10.0 mi SSW 6.9 mph - N/A   Mostly Cloudy
9:35 AM 46.4 °F 41.9 °F 37.4 °F 71% 29.66 in 10.0 mi SSW 9.2 mph - N/A   Overcast
9:55 AM 46.4 °F 42.4 °F 37.4 °F 71% 29.67 in 10.0 mi South 8.1 mph - N/A   Overcast
10:35 AM 46.4 °F 40.7 °F 37.4 °F 71% 29.68 in 10.0 mi South 12.7 mph - N/A   Overcast
10:55 AM 48.2 °F - 37.4 °F 66% 29.68 in 10.0 mi SSW 20.7 mph 26.5 mph N/A   Mostly Cloudy
11:15 AM 50.0 °F - 35.6 °F 58% 29.69 in 10.0 mi SSW 17.3 mph 26.5 mph N/A   Partly Cloudy
11:35 AM 51.8 °F - 35.6 °F 54% 29.70 in 10.0 mi SSW 20.7 mph 25.3 mph N/A   Clear
11:55 AM 42.8 °F 33.5 °F 33.8 °F 70% 29.71 in 10.0 mi SSW 23.0 mph 28.8 mph N/A   Clear
12:15 PM 51.8 °F - 30.2 °F 44% 29.70 in 10.0 mi SSW 20.7 mph 29.9 mph N/A   Clear
12:35 PM 51.8 °F - 30.2 °F 44% 29.72 in 10.0 mi SSW 21.9 mph 31.1 mph N/A   Clear
12:55 PM 51.8 °F - 30.2 °F 44% 29.73 in 10.0 mi SSW 19.6 mph 27.6 mph N/A   Clear
1:15 PM 50.0 °F - 30.2 °F 47% 29.73 in 10.0 mi SSW 19.6 mph 32.2 mph N/A   Clear
1:35 PM 46.4 °F 38.1 °F 30.2 °F 53% 29.74 in 10.0 mi SSW 24.2 mph 28.8 mph N/A   Clear
1:55 PM 55.4 °F - 32.0 °F 41% 29.76 in 10.0 mi SSW 27.6 mph 32.2 mph N/A   Clear
2:15 PM 55.4 °F - 30.2 °F 38% 29.76 in 10.0 mi SSW 20.7 mph 26.5 mph N/A   Clear
2:35 PM 55.4 °F - 30.2 °F 38% 29.78 in 10.0 mi SW 25.3 mph 33.4 mph N/A   Partly Cloudy
2:55 PM 53.6 °F - 26.6 °F 35% 29.78 in 10.0 mi SW 18.4 mph 26.5 mph N/A   Scattered Clouds
3:15 PM 55.4 °F - 28.4 °F 36% 29.80 in 10.0 mi SW 18.4 mph 25.3 mph N/A   Partly Cloudy
3:35 PM 55.4 °F - 32.0 °F 41% 29.81 in 10.0 mi SSW 20.7 mph 25.3 mph N/A   Partly Cloudy
3:55 PM 55.4 °F - 30.2 °F 38% 29.81 in 10.0 mi SSW 17.3 mph - N/A   Partly Cloudy
4:15 PM 55.4 °F - 30.2 °F 38% 29.82 in 10.0 mi SSW 19.6 mph 26.5 mph N/A   Clear
4:35 PM 53.6 °F - 30.2 °F 41% 29.82 in 10.0 mi SSW 20.7 mph 24.2 mph N/A   Clear
4:55 PM 53.6 °F - 30.2 °F 41% 29.83 in 10.0 mi SSW 23.0 mph 29.9 mph N/A   Clear
5:15 PM 53.6 °F - 33.8 °F 47% 29.85 in 10.0 mi SSW 18.4 mph 27.6 mph N/A   Clear
5:35 PM 50.0 °F - 30.2 °F 47% 29.86 in 10.0 mi SW 21.9 mph 25.3 mph N/A   Clear
5:55 PM 48.2 °F - 33.8 °F 58% 29.87 in 10.0 mi SSW 15.0 mph 20.7 mph N/A   Mostly Cloudy
6:15 PM 46.4 °F 40.1 °F 32.0 °F 57% 29.88 in 10.0 mi SW 15.0 mph 21.9 mph N/A   Scattered Clouds
6:35 PM 44.6 °F 37.8 °F 30.2 °F 57% 29.88 in 10.0 mi SSW 15.0 mph 23.0 mph N/A   Partly Cloudy
6:55 PM 28.4 °F 20.4 °F 28.4 °F 100% 29.88 in 10.0 mi SSW 8.1 mph - N/A   Mostly Cloudy
7:15 PM 30.2 °F 19.8 °F 30.2 °F 100% 29.89 in 10.0 mi SSW 13.8 mph - N/A   Partly Cloudy
7:35 PM 26.6 °F 17.5 °F - N/A% 29.91 in 10.0 mi SSW 9.2 mph - N/A   Clear
7:55 PM 33.8 °F 25.3 °F 33.8 °F 100% 29.90 in 10.0 mi South 11.5 mph - N/A   Clear
8:15 PM 35.6 °F 29.9 °F 32.0 °F 87% 29.92 in 10.0 mi South 6.9 mph - N/A   Clear
8:35 PM 37.4 °F 31.4 °F 33.8 °F 87% 29.94 in 10.0 mi South 8.1 mph - N/A   Clear
9:15 PM 30.2 °F 20.8 °F 30.2 °F 100% 29.96 in 10.0 mi South 11.5 mph - N/A   Partly Cloudy
9:35 PM 28.4 °F 19.1 °F 28.4 °F 100% 29.98 in 10.0 mi South 10.4 mph - N/A   Clear
9:55 PM 26.6 °F 19.1 °F 26.6 °F 100% 29.99 in 10.0 mi South 6.9 mph - N/A   Clear
10:15 PM 26.6 °F 18.2 °F - N/A% 30.00 in 10.0 mi South 8.1 mph - N/A   Clear
10:35 PM 26.6 °F 17.5 °F - N/A% 30.01 in 10.0 mi South 9.2 mph - N/A   Clear
10:55 PM 28.4 °F 20.4 °F 28.4 °F 100% 30.02 in 10.0 mi South 8.1 mph - N/A   Clear
11:15 PM 28.4 °F 20.4 °F 28.4 °F 100% 30.03 in 10.0 mi South 8.1 mph - N/A   Partly Cloudy
11:35 PM 28.4 °F 19.7 °F - N/A% 30.04 in 10.0 mi South 9.2 mph - N/A   Partly Cloudy
11:55 PM 28.4 °F 19.1 °F - N/A% 30.05 in 10.0 mi South 10.4 mph - N/A   Mostly Cloudy